Whiteman AFB, MO

1:51 AM CDT on April 25, 2017 (GMT -0500)
Whiteman Air Force Base

Weather History for KSZL - September, 2014

Change the Weather History Date:

Friday, September 12, 2014

  Actual Average Record
Temperature  
Mean Temperature 52 °F -  
Max Temperature 55 °F 79 °F 89 °F (1998)
Min Temperature 49 °F 59 °F 48 °F (2007)
Degree Days  
Heating Degree Days 13    
Growing Degree Days 2 (Base 50)    
Moisture  
Dew Point 47 °F    
Average Humidity 84    
Maximum Humidity 94    
Minimum Humidity 72    
Precipitation  
Precipitation 0.00 in - - ()
Sea Level Pressure  
Sea Level Pressure 30.31 in    
Wind  
Wind Speed 10 mph (NNE)    
Max Wind Speed 17 mph    
Max Gust Speed 18 mph    
Visibility 9 miles    
Events Rain    
Averages and records for this station are not official NWS values.
T = Trace of Precipitation, MM = Missing Value Source: NWS Daily Summary

Daily Weather History Graph

Daily Weather History Graph

Search for Another Location

Airport or City:

Trip Planner

Search our weather history database for the weather conditions in past years. The results will help you decide how hot, cold, wet, or windy it might be!

Date:

Astronomy

Sep. 12, 2014 Rise Set
Actual Time 6:53 AM CDT 7:27 PM CDT
Civil Twilight 6:26 AM CDT 7:53 PM CDT
Nautical Twilight 5:54 AM CDT 8:25 PM CDT
Astronomical Twilight 5:22 AM CDT 8:57 PM CDT
Moon 9:51 PM CDT (9/12) 10:54 AM CDT (9/12)
Length of Visible Light 13h 27m
Length of Day
12h 34m
Waning Gibbous, 83% of the Moon is Illuminated
Sep 12
Waning Gibbous
Sep 15
Last Quarter
Sep 24
New
Oct 1
First Quarter
Oct 8
Full

Hourly Weather History & Observations

Time (CDT) Temp. Dew Point Humidity Pressure Visibility Wind Dir Wind Speed Gust Speed Precip Events Conditions
12:32 AM 55.4 °F 50.0 °F 82% 30.23 in 10.0 mi NE 8.1 mph - N/A   Overcast
12:58 AM 55.0 °F 49.3 °F 81% 30.26 in 10.0 mi NE 8.1 mph - N/A   Overcast
1:58 AM 54.9 °F 48.6 °F 79% 30.25 in 10.0 mi ENE 5.8 mph - N/A   Overcast
2:19 AM 55.4 °F 48.2 °F 77% 30.25 in 10.0 mi ENE 5.8 mph - N/A   Overcast
2:58 AM 54.5 °F 49.1 °F 82% 30.24 in 10.0 mi ENE 6.9 mph - N/A   Overcast
3:58 AM 54.3 °F 50.2 °F 86% 30.22 in 10.0 mi ENE 5.8 mph - N/A   Overcast
4:58 AM 54.1 °F 48.2 °F 80% 30.22 in 10.0 mi NE 8.1 mph - N/A   Overcast
5:58 AM 53.2 °F 47.7 °F 81% 30.26 in 10.0 mi NNE 8.1 mph - N/A   Overcast
6:43 AM 51.8 °F 48.2 °F 88% 30.27 in 8.0 mi NNE 10.4 mph - N/A   Overcast
6:48 AM 51.8 °F 48.2 °F 88% 30.27 in 7.0 mi NNE 10.4 mph - N/A   Overcast
6:58 AM 52.3 °F 46.8 °F 81% 30.29 in 10.0 mi NNE 10.4 mph - N/A   Overcast
7:58 AM 52.7 °F 47.1 °F 81% 30.30 in 10.0 mi NE 10.4 mph - N/A   Overcast
8:58 AM 52.7 °F 47.3 °F 82% 30.31 in 10.0 mi NNE 11.5 mph - N/A   Overcast
9:38 AM 51.8 °F 48.2 °F 88% 30.30 in 9.0 mi NE 9.2 mph - N/A   Overcast
9:44 AM 51.8 °F 48.2 °F 88% 30.30 in 10.0 mi NE 10.4 mph - N/A   Light Drizzle
9:54 AM 51.8 °F 48.2 °F 88% 30.30 in 10.0 mi NNE 10.4 mph - N/A   Overcast
9:58 AM 52.2 °F 48.7 °F 88% 30.32 in 10.0 mi NE 9.2 mph - 0.00 in   Overcast
10:58 AM 52.7 °F 48.2 °F 85% 30.33 in 10.0 mi NE 10.4 mph - N/A   Overcast
11:13 AM 51.8 °F 48.2 °F 88% 30.32 in 6.0 mi NE 8.1 mph - N/A   Light Drizzle
11:58 AM 51.6 °F 48.7 °F 90% 30.32 in 10.0 mi NNE 9.2 mph - 0.00 in   Overcast
12:01 PM 51.8 °F 48.2 °F 88% 30.31 in 9.0 mi NNE 10.4 mph - N/A   Light Drizzle
12:16 PM 51.8 °F 48.2 °F 88% 30.32 in 7.0 mi NNE 10.4 mph - N/A   Overcast
12:37 PM 51.8 °F 48.2 °F 88% 30.31 in 6.0 mi NNE 13.8 mph - N/A   Light Drizzle
12:50 PM 51.8 °F 48.2 °F 88% 30.31 in 4.0 mi NNE 11.5 mph - N/A   Light Drizzle
12:58 PM 51.3 °F 48.7 °F 91% 30.32 in 6.0 mi NNE 9.2 mph - 0.00 in   Overcast
1:08 PM 51.8 °F 48.2 °F 88% 30.30 in 10.0 mi NNE 11.5 mph 18.4 mph N/A   Overcast
1:18 PM 51.8 °F 48.2 °F 88% 30.30 in 10.0 mi NNE 11.5 mph - N/A   Overcast
1:58 PM 53.8 °F 47.3 °F 79% 30.31 in 10.0 mi North 11.5 mph - N/A   Overcast
2:37 PM 55.4 °F 46.4 °F 72% 30.30 in 10.0 mi NNE 10.4 mph - N/A   Overcast
2:58 PM 54.1 °F 46.6 °F 76% 30.31 in 10.0 mi North 11.5 mph - N/A   Overcast
3:05 PM 53.6 °F 46.4 °F 77% 30.30 in 10.0 mi North 12.7 mph - N/A   Light Drizzle
3:23 PM 55.4 °F 46.4 °F 72% 30.30 in 10.0 mi North 13.8 mph - N/A   Overcast
3:59 PM 54.1 °F 46.6 °F 76% 30.32 in 10.0 mi North 13.8 mph - 0.00 in   Overcast
4:14 PM 53.6 °F 46.4 °F 77% 30.30 in 10.0 mi North 11.5 mph - N/A   Overcast
4:39 PM 53.6 °F 48.2 °F 82% 30.32 in 10.0 mi North 13.8 mph - N/A   Overcast
4:58 PM 52.3 °F 47.5 °F 84% 30.33 in 10.0 mi North 17.3 mph - N/A   Overcast
5:03 PM 51.8 °F 48.2 °F 88% 30.32 in 10.0 mi North 15.0 mph - N/A Rain Light Rain
5:55 PM 49.8 °F 47.1 °F 90% 30.34 in 10.0 mi North 12.7 mph - 0.00 in   Mostly Cloudy
6:26 PM 50.0 °F 48.2 °F 94% 30.32 in 10.0 mi North 11.5 mph - N/A   Overcast
6:55 PM 50.0 °F 46.4 °F 87% 30.33 in 10.0 mi North 13.8 mph - N/A   Mostly Cloudy
7:43 PM 50.0 °F 46.4 °F 87% 30.34 in 10.0 mi NNE 9.2 mph - N/A   Mostly Cloudy
7:55 PM 50.0 °F 46.0 °F 86% 30.35 in 10.0 mi North 11.5 mph - N/A   Overcast
8:40 PM 50.0 °F 44.6 °F 82% 30.36 in 10.0 mi NNE 15.0 mph - N/A   Overcast
8:58 PM 49.5 °F 44.2 °F 82% 30.38 in 10.0 mi North 11.5 mph - N/A   Overcast
9:53 PM 50.0 °F 44.6 °F 82% 30.38 in 10.0 mi NNE 10.4 mph - N/A   Overcast
9:58 PM 49.1 °F 44.6 °F 84% 30.40 in 10.0 mi NNE 11.5 mph - N/A   Overcast
10:58 PM 49.3 °F 44.6 °F 84% 30.40 in 10.0 mi NNE 6.9 mph - N/A   Overcast
11:58 PM 49.3 °F 45.0 °F 85% 30.40 in 10.0 mi NE 6.9 mph - N/A   Overcast